Location: Gdynia
(54.5193°N, 18.5395°E)
Time: 13:47:29
(UTC+02:00)

ISS - Visible Passes

Search period start: 20 October 2019 00:00
Search period end: 29 October 2019 23:00
Orbit: 411 x 421 km, 51.6° (Epoch: 20 October)

Date Brightness Start Highest point End Pass type
(mag) Time Alt. Az. Time Alt. Az. Time Alt. Az.
24 Oct -0.6 06:52:19 10° S 06:53:50 13° SE 06:55:22 10° ESE visible
26 Oct -1.4 06:50:15 10° SSW 06:52:55 22° SSE 06:55:36 10° E visible
27 Oct -1.1 05:02:16 10° S 05:04:29 16° SSE 05:06:41 10° ESE visible
28 Oct -0.9 04:14:44 10° SSE 04:16:04 12° SE 04:17:23 10° ESE visible
28 Oct -2.3 05:49:00 10° SW 05:52:05 34° SSE 05:55:11 10° E visible
29 Oct -2.0 05:01:05 13° SSW 05:03:33 27° SSE 05:06:28 10° E visible
